De Soto, IL

7:33 PM CDT on September 29, 2016 (GMT -0500)
Southern Illinois

Weather History for KMDH - February, 2013

Change the Weather History Date:

Tuesday, February 26, 2013

  Actual Average Record
Temperature  
Mean Temperature 45 °F -  
Max Temperature 51 °F 47 °F 78 °F (1917)
Min Temperature 39 °F 27 °F 10 °F (1963)
Degree Days  
Heating Degree Days 20    
Moisture  
Dew Point 38 °F    
Average Humidity 77    
Maximum Humidity 82    
Minimum Humidity 63    
Precipitation  
Precipitation 0.52 in - - ()
Sea Level Pressure  
Sea Level Pressure 29.46 in    
Wind  
Wind Speed 12 mph (SSW)    
Max Wind Speed 17 mph    
Max Gust Speed 29 mph    
Visibility 9 miles    
Events Rain    
Averages and records for this station are not official NWS values.
T = Trace of Precipitation, MM = Missing Value Source: NWS Daily Summary

Daily Weather History Graph

Daily Weather History Graph

Search for Another Location

Airport or City:

Trip Planner

Search our weather history database for the weather conditions in past years. The results will help you decide how hot, cold, wet, or windy it might be!

Date:

Astronomy

Feb. 26, 2013 Rise Set
Actual Time 6:32 AM CST 5:47 PM CST
Civil Twilight 6:05 AM CST 6:14 PM CST
Nautical Twilight 5:35 AM CST 6:44 PM CST
Astronomical Twilight 5:05 AM CST 7:15 PM CST
Moon 7:02 PM CST (2/26) 6:36 AM CST (2/26)
Length of Visible Light 12h 08m
Length of Day
11h 15m
Full, 99% of the Moon is Illuminated
Feb 26
Full
Mar 4
Last Quarter
Mar 11
New
Mar 19
First Quarter
Mar 27
Full

Hourly Weather History & Observations

Time (CST) Temp. Windchill Dew Point Humidity Pressure Visibility Wind Dir Wind Speed Gust Speed Precip Events Conditions
12:52 AM 42.1 °F 34.2 °F 34.0 °F 73% 29.47 in 10.0 mi ENE 16.1 mph - 0.11 in Rain Light Rain
1:35 AM 42.8 °F 37.5 °F 35.6 °F 76% 29.46 in 3.0 mi ENE 9.2 mph - 0.12 in Rain Heavy Rain
1:52 AM 42.1 °F 36.1 °F 36.0 °F 79% 29.46 in 6.0 mi East 10.4 mph 19.6 mph 0.15 in Rain Light Rain
2:21 AM 42.8 °F 35.8 °F 37.4 °F 81% 29.42 in 4.0 mi ENE 13.8 mph - 0.08 in Rain Rain
2:52 AM 43.0 °F 35.7 °F 37.0 °F 80% 29.40 in 5.0 mi East 15.0 mph - 0.11 in Rain Light Rain
3:52 AM 43.0 °F 35.4 °F 37.0 °F 80% 29.36 in 8.0 mi East 16.1 mph 23.0 mph 0.05 in Rain Light Rain
4:52 AM 43.0 °F 36.8 °F 37.9 °F 82% 29.36 in 10.0 mi East 11.5 mph - 0.00 in   Overcast
5:09 AM 42.8 °F 37.0 °F 37.4 °F 81% 29.36 in 10.0 mi East 10.4 mph - N/A   Overcast
5:52 AM 44.1 °F 38.6 °F 37.9 °F 79% 29.34 in 10.0 mi East 10.4 mph - N/A   Overcast
6:52 AM 44.1 °F 38.6 °F 39.0 °F 82% 29.34 in 9.0 mi East 10.4 mph - 0.00 in   Overcast
7:52 AM 45.0 °F 41.8 °F 39.9 °F 82% 29.36 in 7.0 mi ESE 5.8 mph - N/A   Overcast
8:52 AM 48.0 °F - 42.1 °F 80% 29.36 in 10.0 mi South 5.8 mph - N/A   Overcast
9:52 AM 48.9 °F - 41.0 °F 74% 29.37 in 10.0 mi SSW 17.3 mph 25.3 mph N/A   Overcast
10:52 AM 48.9 °F - 39.9 °F 71% 29.38 in 10.0 mi SSW 8.1 mph - N/A   Overcast
11:35 AM 50.0 °F - 39.2 °F 66% 29.38 in 10.0 mi SSW 15.0 mph - N/A   Overcast
11:52 AM 51.1 °F - 39.0 °F 63% 29.38 in 10.0 mi SW 10.4 mph 20.7 mph N/A   Overcast
12:52 PM 46.9 °F - 41.0 °F 80% 29.39 in 7.0 mi SW 10.4 mph - 0.04 in Rain Light Rain
1:22 PM 50.0 °F - 42.8 °F 76% 29.38 in 10.0 mi SSW 16.1 mph - 0.00 in Rain Light Rain
1:43 PM 50.0 °F - 42.8 °F 76% 29.38 in 10.0 mi SW 12.7 mph 19.6 mph 0.00 in   Overcast
1:52 PM 50.0 °F - 42.1 °F 74% 29.38 in 10.0 mi SSW 10.4 mph - 0.00 in   Overcast
2:52 PM 48.0 °F - 39.9 °F 74% 29.41 in 10.0 mi SSW 13.8 mph 28.8 mph 0.02 in   Overcast
3:24 PM 48.2 °F - 39.2 °F 71% 29.42 in 10.0 mi SSW 15.0 mph - 0.00 in Rain Light Rain
3:37 PM 46.4 °F 41.1 °F 39.2 °F 76% 29.42 in 10.0 mi SSW 11.5 mph - 0.00 in   Overcast
3:52 PM 46.9 °F - 39.9 °F 77% 29.44 in 7.0 mi SSW 12.7 mph - 0.00 in Rain Light Rain
4:52 PM 44.1 °F 37.7 °F 37.9 °F 79% 29.47 in 10.0 mi SW 12.7 mph - 0.02 in Rain Light Rain
5:00 PM 44.6 °F 38.8 °F 37.4 °F 76% 29.47 in 10.0 mi SW 11.5 mph - 0.01 in Rain Light Rain
5:28 PM 42.8 °F 36.6 °F 37.4 °F 81% 29.48 in 10.0 mi SW 11.5 mph - 0.01 in Rain Light Rain
5:52 PM 43.0 °F 37.2 °F 37.0 °F 80% 29.50 in 10.0 mi SW 10.4 mph - 0.01 in   Overcast
6:43 PM 42.8 °F 37.5 °F 37.4 °F 81% 29.52 in 10.0 mi West 9.2 mph - 0.01 in Rain Light Rain
6:52 PM 43.0 °F 36.0 °F 37.0 °F 80% 29.54 in 10.0 mi WSW 13.8 mph 19.6 mph 0.01 in Rain Light Rain
7:36 PM 42.8 °F 36.2 °F 35.6 °F 76% 29.56 in 10.0 mi West 12.7 mph - 0.00 in   Overcast
7:52 PM 41.0 °F 33.9 °F 35.1 °F 79% 29.57 in 10.0 mi West 12.7 mph 18.4 mph 0.00 in   Overcast
8:18 PM 41.0 °F 36.4 °F 35.6 °F 81% 29.58 in 10.0 mi West 6.9 mph - N/A   Overcast
8:52 PM 41.0 °F 35.2 °F 35.1 °F 79% 29.60 in 10.0 mi West 9.2 mph - N/A   Overcast
9:33 PM 41.0 °F 34.3 °F 33.8 °F 76% 29.62 in 10.0 mi West 11.5 mph 18.4 mph N/A   Overcast
9:52 PM 41.0 °F 34.7 °F 34.0 °F 76% 29.63 in 10.0 mi West 10.4 mph 20.7 mph N/A   Overcast
10:16 PM 39.2 °F 32.0 °F 33.8 °F 81% 29.64 in 10.0 mi West 11.5 mph - N/A   Overcast
10:33 PM 39.2 °F 32.0 °F 33.8 °F 81% 29.65 in 10.0 mi West 11.5 mph 18.4 mph N/A   Overcast
11:52 PM 39.9 °F 32.9 °F 32.0 °F 73% 29.68 in 10.0 mi West 11.5 mph 20.7 mph 0.00 in Rain Light Rain